Flag for Australia Weather past 2 weeks in Adelaide, South Australia, Australia

Now
45 °F

Clear.


Feels Like: 42 °F
Forecast: 40 / 55 °F
Wind: 5 mph from East

Location: Adelaide Airport

Current Time: Jul 2, 2015 at 10:44:40 PM

Latest Report: Jul 2, 2015 at 10:00 PM


Visibility: 10 mi

Pressure: 30.42 "Hg

Humidity: 76%

Dew point: 37 °F

Location of AdelaideLocation

Historic Weather in Adelaide — Graph

°F

Adelaide temperature yesterday

Maximum temperature yesterday: 57 °F (at 1:00 PM)
Minimum temperature yesterday: 41 °F (at 12:00 AM)
Average temperature yesterday: 50 °F

Past Weeks' High & Low Weather Summary

 TemperatureHumidityPressure
High64 °F (Jun 22, 2:00 PM)100% (Jun 18, 12:30 AM)30.57 "Hg (Jun 18, 12:30 AM)
Low37 °F (Jun 27, 6:00 AM)32% (Jun 22, 2:00 PM)29.89 "Hg (Jun 22, 4:00 PM)
Average52 °F73%30.32 "Hg
* Reported Jun 17 9:30 PM — Jul 2 9:30 PM, Adelaide, Weather by CustomWeather, © 2015

Note: Actual official high and low records may vary slightly from our data, if they occured in-between our weather recording intervals... More about our weather records

Advertising

Adelaide weather history for previous 24 hours

 ConditionsComfort  
Time TempWeatherWind HumidityBarometerVisibility
9:30 PM
Thu, Jul 2
45 °FClear.No wind81%30.42 "Hg10 mi
8:30 PM48 °FClear.No wind76%30.42 "Hg10 mi
8:00 PM48 °FClear.No wind71%30.42 "Hg10 mi
7:30 PM48 °FClear.7 mph71%30.42 "Hg10 mi
7:00 PM50 °FClear.7 mph67%30.39 "Hg10 mi
6:30 PM50 °FClear.7 mph67%30.39 "Hg10 mi
6:00 PM52 °FClear.7 mph62%30.39 "Hg10 mi
5:30 PM54 °FClear.8 mph58%30.39 "Hg10 mi
5:00 PM55 °FClear.10 mph55%30.36 "Hg10 mi
4:30 PM57 °FPassing clouds.10 mph55%30.36 "HgN/A
4:00 PM59 °FPassing clouds.12 mph51%30.36 "HgN/A
3:30 PM59 °FPassing clouds.12 mph51%30.36 "HgN/A
3:00 PM59 °FPassing clouds.10 mph55%30.36 "HgN/A
2:30 PM59 °FPassing clouds.9 mph55%30.36 "HgN/A
2:00 PM59 °FScattered clouds.13 mph51%30.36 "HgN/A
1:30 PM59 °FPartly sunny.12 mph55%30.39 "HgN/A
1:00 PM59 °FScattered clouds.10 mph72%30.39 "HgN/A
12:30 PM59 °FPassing clouds.12 mph72%30.39 "HgN/A
12:00 PM57 °FPassing clouds.10 mph77%30.39 "HgN/A
11:30 AM57 °FPassing clouds.8 mph77%30.39 "HgN/A
11:00 AM57 °FPassing clouds.2 mph77%30.39 "HgN/A
10:30 AM57 °FPassing clouds.5 mph77%30.39 "HgN/A
10:00 AM54 °FScattered clouds.6 mph82%30.39 "HgN/A
9:30 AM52 °FPartly sunny.8 mph88%30.39 "HgN/A
9:00 AM52 °FBroken clouds.9 mph82%30.36 "HgN/A
8:30 AM50 °FPartly sunny.8 mph88%30.36 "HgN/A
8:19 AM50 °FPartly sunny.9 mph88%30.36 "HgN/A
8:00 AM50 °FDrizzle. Partly sunny.7 mph88%30.36 "HgN/A
7:30 AM50 °FDrizzle. Partly sunny.10 mph82%30.36 "HgN/A
6:30 AM50 °FMostly cloudy.8 mph82%30.33 "HgN/A
6:00 AM50 °FLow clouds.10 mph82%30.33 "HgN/A
5:30 AM50 °FLow clouds.8 mph82%30.33 "HgN/A
5:00 AM50 °FOvercast.9 mph82%30.33 "HgN/A
4:30 AM50 °FMostly cloudy.10 mph82%30.33 "HgN/A
4:00 AM50 °FPartly cloudy.10 mph82%30.33 "HgN/A
3:30 AM50 °FPassing clouds.9 mph76%30.33 "HgN/A
3:00 AM50 °FPassing clouds.8 mph82%30.33 "HgN/A
2:30 AM50 °FPartly cloudy.10 mph82%30.33 "HgN/A
2:00 AM50 °FPassing clouds.9 mph82%30.33 "HgN/A
1:30 AM50 °FPassing clouds.9 mph88%30.33 "HgN/A
1:00 AM50 °FPartly cloudy.8 mph88%30.33 "HgN/A
12:30 AM50 °FOvercast.7 mph88%30.36 "HgN/A
12:00 AM52 °FOvercast.10 mph77%30.33 "HgN/A
11:30 PM
Wed, Jul 1
52 °FPassing clouds.8 mph72%30.36 "HgN/A
11:00 PM52 °FPassing clouds.8 mph72%30.36 "HgN/A
10:30 PM52 °FOvercast.7 mph72%30.36 "HgN/A
10:00 PM52 °FOvercast.6 mph67%30.36 "HgN/A
Weather by CustomWeather, © 2015

See weather overviewHow to use our weather pages